Zurück zum Katalog

COSMOS 2251 DEB

AktivLEO
NORAD 37491·DEBRIS·🇷🇺 Russia

Gestartet Jun 16, 1993 von Plesetsk Cosmodrome

Loading…

Nächste Überflüge (nächste 24 Stunden)

TLE

AktuellSource: Space-Track

Epoche: Sep 13, 2026, 10:32 UTC

1 37491U 93036BLU 26256.43904630  .00000942  00000-0  69442-3 0  9998
2 37491  73.9059 173.3001 0312076 114.7224 248.6720 13.75991051595249

Verfolge COSMOS 2251 DEB in Echtzeit mit AllMySat

Download on the App Store